Terminal Aerodrome Forecast
Issued by NWS Twin Cities, MN

Home | Current Version | Previous Version | Text Only | Print | Product List | Glossary Off
Versions: 1 2 3 4 5 6 7 8 9 10 11 12 13 14 15 16 17 18 19 20 21 22 23 24 25 26 27

000
FTUS43 KMPX 170900 AAA
TAFMSP
TAF AMD
KMSP 170900Z 1709/1812 29008KT P6SM SCT020
      TEMPO 1709/1712 P6SM BKN020
     FM171200 32006KT P6SM BKN020
     FM171500 33006KT P6SM SCT025
     FM172200 36005KT P6SM SCT250=

USA.gov is the U.S. government's official web portal to all federal, state and local government web resources and services.